Location: Copper Mountain Observatory
(34.1350°N, 116.3120°W)
Time: 22:11:50
(UTC-08:00)

Daily predictions for brighter satellites

Satellite Brightness Start Highest point End
(mag) Time Altitude Azimuth Time Altitude Azimuth Time Altitude Azimuth
Cosmos 1980 Rocket 2.4 17:52:12 10° NNW 17:57:54 79° WSW 18:03:34 10° SSE
Cosmos 1782 Rocket 4.1 17:56:28 10° SSW 18:00:51 66° W 18:05:17 10° N
GEOS 3 Rocket 3.8 17:56:58 10° NE 18:02:08 58° ESE 18:07:20 10° SSW
CENTAUR R/B 3.2 18:01:16 10° NNW 18:09:21 88° ENE 18:17:46 10° SSE
Cosmos 1633 3.9 18:07:17 10° SE 18:10:01 20° E 18:12:45 10° NE
Longmarch 3A Rocket 2.7 18:08:59 10° SW 18:10:08 15° S 18:11:25 10° SE
SJ-6B 3.4 18:09:00 10° SE 18:12:44 37° ENE 18:16:26 10° N
Cosmos 1484 Rocket 4.4 18:11:32 10° S 18:15:18 40° W 18:19:03 10° NNW
Cosmos 44 3.1 18:12:04 10° NNW 18:16:23 52° ENE 18:20:33 10° SE
Okean 2 Rocket 3.8 18:12:22 10° SSW 18:16:46 59° W 18:21:10 10° N
COSMO-SKYMED 1 3.9 18:13:07 10° N 18:17:15 44° WNW 18:21:21 10° SW
Meteor 1-18 Rocket 4.2 18:12:02 10° N 18:17:36 70° E 18:23:11 10° SSE
ASTRO E2 3.4 18:14:13 10° W 18:18:07 48° S 18:21:53 11° ESE
TSX-5 3.7 18:18:10 10° S 18:21:18 40° ESE 18:24:17 10° NE
Cosmos 1709 Rocket 4.1 18:18:51 10° SSE 18:24:55 55° E 18:30:56 10° NNE
BREEZE-M DEB (TANK) 3.8 18:18:34 10° NW 18:26:24 43° NNE 18:28:34 18° E
Gbstr 26 Del rocket 3.4 18:24:19 10° SSW 18:27:52 34° SE 18:29:58 19° ENE
SL-16 R/B 2.2 18:24:06 10° NNW 18:29:45 65° ENE 18:35:21 10° SSE
CZ-3C R/B 3.3 18:22:48 10° WSW 18:30:38 20° SSW 18:33:54 10° SSE
Cosmos 1340 3.3 18:31:35 10° NNE 18:35:00 32° ENE 18:38:24 10° SE
Cosmos 2151 Rocket 3.7 18:30:43 10° S 18:35:11 84° W 18:39:44 10° N
Cosmos 1536 3.9 18:33:14 10° SE 18:36:24 23° E 18:37:17 21° ENE
Cosmos 1818 3.7 18:32:48 10° SSW 18:38:14 79° WNW 18:43:43 10° NNE
Cosmos 1461 3.2 18:35:01 10° NNW 18:38:52 42° ENE 18:41:24 19° ESE
FREGAT/IRIS 2.6 18:37:10 10° S 18:40:14 83° WSW 18:43:20 10° NNW
BREEZE-M DEB (TANK) 2.7 18:35:13 10° SW 18:40:49 64° SE 18:42:08 28° ENE
Okean 1 Rocket 3.5 18:40:21 10° SSE 18:44:31 40° E 18:48:44 10° NNE
Cosmos 2292 Rocket 4.1 18:41:46 10° S 18:46:13 83° W 18:52:20 10° N
Okean 1 3.3 18:42:19 10° N 18:46:23 88° W 18:50:27 10° S
Meteor 1-13 Rocket 4.3 18:41:33 10° N 18:46:56 50° E 18:52:22 10° SSE
OAO 3 Copernicus 4.3 18:42:04 10° W 18:47:10 80° N 18:49:53 28° E
Helios 1A 4.3 18:48:26 22° NE 18:48:26 22° NE 18:50:48 10° NNE
CZ-2D R/B 4.3 18:48:13 26° NE 18:48:13 26° NE 18:50:51 10° NNE
Cosmos 2322 Rocket 2.2 18:42:42 10° NNW 18:48:20 84° WSW 18:53:56 10° SSE
SL-8 R/B 4.3 18:46:58 10° WNW 18:51:41 56° SW 18:55:53 13° SSE
NOSS 8 (F) 4.4 18:51:41 10° SSW 18:55:16 62° ESE 18:56:15 41° ENE
Cosmos 1023 Rocket 4.3 18:50:36 10° S 18:55:38 71° ESE 19:00:45 10° NNE
DELTA 2 R/B (1) 3.9 18:50:25 10° WNW 18:55:55 53° N 18:58:28 30° ENE
ALOS 2.2 18:52:12 10° SSE 18:56:52 84° ENE 19:01:33 10° N
Cosmos 676 Rocket 4.4 18:53:05 10° SSW 18:58:12 63° WNW 19:03:22 10° N
H-2A R/B 2.7 18:57:12 31° SE 18:58:38 53° ENE 19:02:16 10° N
Cosmos 2322 4.2 18:54:05 10° N 18:59:24 38° ENE 19:00:58 32° E
Okean 1-7 Rocket 4.5 18:59:16 10° NNE 19:02:21 31° NE 19:02:21 31° NE
FENGYUN 3A 3.6 18:58:52 10° SSE 19:04:16 88° WSW 19:09:43 10° NNW
COSMOS 2428 4.0 19:06:38 10° N 19:10:00 23° NE 19:10:00 23° NE
Meteor 2-4 Rocket 3.7 19:06:04 10° N 19:11:28 50° E 19:13:14 36° SE
Helios 1B rocket 2.3 19:15:08 63° ENE 19:15:31 68° ESE 19:19:38 10° S
Cosmos 1238 Rocket 3.6 19:12:50 10° NNW 19:14:27 28° NNW 19:14:27 28° NNW
Meteor 1-11 Rocket 3.9 19:11:41 10° SSW 19:17:24 76° W 19:23:17 10° N
ATLAS CENTAUR R/B 3.2 19:19:27 10° SSW 19:23:11 29° S 19:23:11 29° S
Cosmos 1140 Rocket 4.0 19:19:50 10° SSW 19:24:52 59° WNW 19:29:57 10° N
GPS 2-04 Rocket1 3.8 19:24:04 10° SW 19:27:20 38° S 19:27:20 38° S
Tiangong 2 3.2 19:25:19 10° NW 19:26:41 23° NW 19:26:41 23° NW
Resurs 01 Rocket 2.3 19:24:23 10° S 19:28:40 53° W 19:33:00 10° NNW
Spot 2 Rocket 4.0 19:26:00 10° S 19:30:57 60° WSW 19:35:58 10° NNW
Cosmos 2219 3.1 19:26:27 10° SSW 19:32:11 75° ESE 19:33:37 51° NE
Cosmos 614 Rocket 4.5 19:34:20 10° SSW 19:39:20 57° WNW 19:43:40 14° N
CZ-3 Stage 3 4.5 19:34:51 10° WSW 19:39:41 68° SSE 19:45:43 39° E
Cosmos 1850 Rocket 4.2 19:34:30 10° SSW 19:39:46 71° WNW 19:43:04 23° N
Cosmos 2360 Rocket 2.2 19:35:29 10° NNW 19:41:10 80° WSW 19:42:30 54° S
Cosmos 2219 Rocket 4.2 19:40:13 10° N 19:41:19 15° NNE 19:41:19 15° NNE
Cosmos 2333 Rocket 4.4 20:01:47 10° N 20:02:36 14° N 20:02:36 14° N
